Franklin, PA

6:09 AM EDT on October 15, 2019 (GMT -0400)
Venango Regional

Weather History for KFKL - August, 2019

Change the Weather History Date:

Tuesday, August 13, 2019

  Actual Average Record
Temperature  
Mean Temperature 67 °F -  
Max Temperature 70 °F 79 °F 94 °F (1947)
Min Temperature 64 °F 55 °F 36 °F (1930)
Cooling Degree Days 2    
Growing Degree Days 17 (Base 50)    
Moisture  
Dew Point 66 °F    
Average Humidity 95    
Maximum Humidity 100    
Minimum Humidity 88    
Precipitation  
Precipitation 0.16 in - - ()
Sea Level Pressure  
Sea Level Pressure 29.85 in    
Wind  
Wind Speed 4 mph (SSW)    
Max Wind Speed 8 mph    
Max Gust Speed -    
Visibility 7 miles    
Events Fog , Rain    
Averages and records for this station are not official NWS values.
T = Trace of Precipitation, MM = Missing Value Source: NWS Daily Summary

Daily Weather History Graph

Daily Weather History Graph

Search for Another Location

Airport or City:

Astronomy

Aug. 13, 2019 Rise Set
Actual Time 6:26 AM EDT 8:21 PM EDT
Civil Twilight 5:56 AM EDT 8:51 PM EDT
Nautical Twilight 5:19 AM EDT 9:27 PM EDT
Astronomical Twilight 4:40 AM EDT 10:07 PM EDT
Moon 7:36 PM EDT (8/13) 4:25 AM EDT (8/13)
Length of Visible Light 14h 55m
Length of Day
13h 55m
Waxing Gibbous, 97% of the Moon is Illuminated
Aug 13
Waxing Gibbous
Aug 15
Full
Aug 23
Last Quarter
Aug 30
New
Sep 5
First Quarter

Hourly Weather History & Observations

Time (EDT) Temp. Dew Point Humidity Pressure Visibility Wind Dir Wind Speed Gust Speed Precip Events Conditions
12:56 AM 66.0 °F 64.0 °F 93% 29.89 in 10.0 mi SSW 8.1 mph - 0.00 in   Overcast
1:20 AM 66.2 °F 64.4 °F 94% 29.91 in 10.0 mi SSW 8.1 mph - 0.00 in Rain Light Rain
1:56 AM 66.0 °F 64.9 °F 96% 29.88 in 10.0 mi SSW 8.1 mph - 0.00 in   Overcast
2:56 AM 66.0 °F 64.9 °F 96% 29.86 in 10.0 mi SSE 4.6 mph - 0.00 in   Overcast
3:56 AM 64.9 °F 64.0 °F 97% 29.86 in 10.0 mi SW 3.5 mph - N/A   Overcast
4:56 AM 64.9 °F 63.0 °F 93% 29.84 in 10.0 mi South 3.5 mph - N/A   Overcast
5:56 AM 64.9 °F 64.0 °F 97% 29.84 in 10.0 mi SSW 8.1 mph - N/A   Overcast
6:56 AM 64.9 °F 64.0 °F 97% 29.84 in 10.0 mi SSW 8.1 mph - N/A   Overcast
7:07 AM 64.4 °F 64.4 °F 100% 29.86 in 10.0 mi SSW 5.8 mph - N/A   Overcast
7:56 AM 66.0 °F 64.0 °F 93% 29.85 in 10.0 mi South 4.6 mph - N/A   Overcast
8:21 AM 66.2 °F 64.4 °F 94% 29.87 in 10.0 mi South 5.8 mph - N/A   Overcast
8:56 AM 66.0 °F 64.0 °F 93% 29.86 in 10.0 mi SW 5.8 mph - N/A   Overcast
9:43 AM 66.2 °F 64.4 °F 94% 29.88 in 5.0 mi Calm Calm - 0.02 in Rain Rain
9:56 AM 66.0 °F 64.9 °F 96% 29.86 in 5.0 mi Calm Calm - 0.03 in Rain Rain
10:08 AM 66.2 °F 64.4 °F 94% 29.87 in 6.0 mi SSW 3.5 mph - 0.02 in Rain Light Rain
10:56 AM 66.9 °F 66.0 °F 97% 29.86 in 10.0 mi Calm Calm - 0.07 in Rain Light Rain
11:56 AM 68.0 °F 66.0 °F 93% 29.86 in 9.0 mi South 4.6 mph - 0.00 in   Overcast
12:34 PM 68.0 °F 66.2 °F 94% 29.87 in 10.0 mi South 4.6 mph - N/A   Overcast
12:44 PM 68.0 °F 66.2 °F 94% 29.87 in 10.0 mi South 4.6 mph - N/A   Overcast
12:56 PM 68.0 °F 66.0 °F 93% 29.85 in 6.0 mi South 3.5 mph - N/A   Overcast
1:56 PM 68.0 °F 66.0 °F 93% 29.83 in 10.0 mi Calm Calm - 0.01 in Rain Light Rain
2:22 PM 68.0 °F 66.2 °F 94% 29.84 in 4.0 mi Calm Calm - 0.02 in Rain Light Rain
2:48 PM 69.8 °F 66.2 °F 88% 29.84 in 5.0 mi ESE 3.5 mph - 0.04 in Rain Light Rain
2:56 PM 69.1 °F 66.9 °F 93% 29.82 in 7.0 mi SE 3.5 mph - 0.04 in Rain Light Rain
3:56 PM 70.0 °F 68.0 °F 93% 29.80 in 10.0 mi South 5.8 mph - 0.01 in   Overcast
4:44 PM 69.8 °F 66.2 °F 88% 29.83 in 10.0 mi South 5.8 mph - N/A   Overcast
4:56 PM 69.1 °F 66.9 °F 93% 29.81 in 10.0 mi South 5.8 mph - N/A   Overcast
5:56 PM 70.0 °F 66.9 °F 90% 29.82 in 10.0 mi South 3.5 mph - N/A   Overcast
6:07 PM 69.8 °F 66.2 °F 88% 29.83 in 10.0 mi Calm Calm - N/A   Overcast
6:56 PM 70.0 °F 66.9 °F 90% 29.81 in 10.0 mi Calm Calm - N/A   Overcast
7:44 PM 69.8 °F 66.2 °F 88% 29.83 in 10.0 mi Calm Calm - N/A   Overcast
7:56 PM 70.0 °F 66.9 °F 90% 29.82 in 10.0 mi Calm Calm - N/A   Overcast
8:12 PM 69.8 °F 66.2 °F 88% 29.84 in 10.0 mi Calm Calm - N/A   Overcast
8:56 PM 69.1 °F 66.9 °F 93% 29.83 in 10.0 mi SE 3.5 mph - N/A   Overcast
9:12 PM 68.0 °F 66.2 °F 94% 29.86 in 9.0 mi Calm Calm - N/A   Overcast
9:36 PM 66.2 °F 66.2 °F 100% 29.87 in 2.5 mi WNW 3.5 mph - N/A   Mostly Cloudy
9:46 PM 66.2 °F 66.2 °F 100% 29.86 in 4.0 mi Calm Calm - N/A   Partly Cloudy
9:56 PM 66.9 °F 66.0 °F 97% 29.85 in 2.0 mi Calm Calm - N/A   Partly Cloudy
9:59 PM 66.2 °F 66.2 °F 100% 29.86 in 1.0 mi Calm Calm - N/A   Partly Cloudy
10:01 PM 66.2 °F 66.2 °F 100% 29.86 in 0.5 mi Calm Calm - N/A Fog Fog
10:12 PM 66.2 °F 66.2 °F 100% 29.86 in 1.0 mi Calm Calm - N/A   Partly Cloudy
10:14 PM 66.2 °F 66.2 °F 100% 29.86 in 2.0 mi Calm Calm - N/A   Partly Cloudy
10:22 PM 66.2 °F 66.2 °F 100% 29.87 in 1.0 mi Calm Calm - N/A   Mist
10:28 PM 64.4 °F 64.4 °F 100% 29.87 in 0.8 mi Calm Calm - N/A   Partly Cloudy
10:38 PM 66.2 °F 64.4 °F 94% 29.87 in 0.5 mi North 3.5 mph - N/A Fog Fog
10:45 PM 66.2 °F 64.4 °F 94% 29.87 in 0.5 mi NNW 3.5 mph - N/A Fog Fog
10:50 PM 66.2 °F 66.2 °F 100% 29.88 in 1.0 mi NNW 3.5 mph - N/A   Mostly Cloudy
10:56 PM 66.0 °F 66.0 °F 100% 29.86 in 1.5 mi Calm Calm - N/A   Mostly Cloudy
11:01 PM 66.2 °F 66.2 °F 100% 29.88 in 2.0 mi Calm Calm - N/A   Mostly Cloudy
11:09 PM 66.2 °F 66.2 °F 100% 29.88 in 5.0 mi Calm Calm - N/A   Overcast
11:44 PM 66.2 °F 66.2 °F 100% 29.87 in 3.0 mi Calm Calm - N/A   Overcast
11:56 PM 66.9 °F 66.9 °F 100% 29.85 in 1.8 mi Calm Calm - N/A   Overcast